User: anonymous   Login
Location: Unspecified
(0.0000°N, 0.0000°E)
Time: 16:52:10
(UTC+02:00)
Language:

Vanguard 2 - Orbit

View from above orbital plane
View from above orbital plane
View from above satellite
View from above satellite

Ground track
Ground track

The orbit data is extracted from the following two-line orbital elements,

1 00011U 59001A   18197.16355276  .00000018  00000-0 -11182-4 0  9995
2 00011  32.8747 171.7971 1468317 247.2910  96.6162 11.85536222533346
Epoch (UTC): 16 July 2018 03:55:30
Eccentricity: 0.1468317
inclination: 32.8747°
perigee height: 553 km
apogee height: 2939 km
right ascension of ascending node: 171.7971°
argument of perigee: 247.2910°
revolutions per day: 11.85536222
mean anomaly at epoch: 96.6162°
orbit number at epoch: 53334

The dashed part of the orbit path shows where the satellite is in the earth's shadow,  

DLR